contact:dominique.lefevre@mio.osupytheas.fr, maurice.libes@osupytheas.fr, didier.mallarino@osupytheas.fr
Project:EMSO http://www.emso-fr.org/EMSO-France
Depth: 2436.0 m
Title:EMSO Ligure Ouest : Data MII capteur MICROCAT
DateTime_Computer,Latitude,Longitude,Temperature,Conductivity,Pressure,DateTime_Instrument
DateTime_Computer,Latitude,Longitude,degC,S m-1,dbar,DateTime_Instrument
2020-01-25T00:02:02Z,42.805,6.029,13.3029,4.60034,2469.876,2020-1-25T02:02:35Z
2020-01-25T00:05:05Z,42.805,6.029,13.3019,4.60053,2469.914,2020-1-25T02:05:39Z
2020-01-25T00:08:09Z,42.805,6.029,13.3035,4.60044,2469.853,2020-1-25T02:08:42Z
2020-01-25T00:11:12Z,42.805,6.029,13.3011,4.60003,2469.867,2020-1-25T02:11:45Z
2020-01-25T00:14:15Z,42.805,6.029,13.3025,4.60031,2469.914,2020-1-25T02:14:48Z
2020-01-25T00:17:18Z,42.805,6.029,13.3016,4.60042,2469.867,2020-1-25T02:17:51Z
2020-01-25T00:20:21Z,42.805,6.029,13.3007,4.60044,2469.867,2020-1-25T02:20:54Z
2020-01-25T00:23:24Z,42.805,6.029,13.3015,4.60042,2469.853,2020-1-25T02:23:58Z
2020-01-25T00:26:28Z,42.805,6.029,13.2993,4.60052,2469.821,2020-1-25T02:27:01Z
2020-01-25T00:29:31Z,42.805,6.029,13.3019,4.60032,2469.867,2020-1-25T02:30:04Z
2020-01-25T00:32:34Z,42.805,6.029,13.3010,4.60036,2469.867,2020-1-25T02:33:07Z
2020-01-25T00:35:37Z,42.805,6.029,13.2990,4.60006,2469.867,2020-1-25T02:36:10Z
2020-01-25T00:38:40Z,42.805,6.029,13.2999,4.60035,2469.83,2020-1-25T02:39:14Z
2020-01-25T00:41:43Z,42.805,6.029,13.2991,4.59983,2469.853,2020-1-25T02:42:17Z
2020-01-25T00:44:47Z,42.805,6.029,13.3002,4.60015,2469.876,2020-1-25T02:45:20Z
2020-01-25T00:47:50Z,42.805,6.029,13.3000,4.60141,2469.844,2020-1-25T02:48:23Z
2020-01-25T00:50:53Z,42.805,6.029,13.3000,4.60001,2469.853,2020-1-25T02:51:26Z
2020-01-25T00:53:56Z,42.805,6.029,13.2977,4.60014,2469.867,2020-1-25T02:54:29Z
2020-01-25T00:56:59Z,42.805,6.029,13.2993,4.60038,2469.806,2020-1-25T02:57:33Z
2020-01-25T01:00:03Z,42.805,6.029,13.3018,4.60042,2469.83,2020-1-25T03:00:36Z
2020-01-25T01:03:06Z,42.805,6.029,13.3011,4.60067,2469.844,2020-1-25T03:03:39Z
2020-01-25T01:06:09Z,42.805,6.029,13.2988,4.60031,2469.853,2020-1-25T03:06:42Z
2020-01-25T01:09:12Z,42.805,6.029,13.3001,4.60014,2469.844,2020-1-25T03:09:45Z
2020-01-25T01:12:15Z,42.805,6.029,13.3018,4.60037,2469.83,2020-1-25T03:12:49Z
2020-01-25T01:15:19Z,42.805,6.029,13.2982,4.60026,2469.867,2020-1-25T03:15:52Z
2020-01-25T01:18:22Z,42.805,6.029,13.3021,4.60029,2469.844,2020-1-25T03:18:55Z
2020-01-25T01:21:25Z,42.805,6.029,13.3013,4.60016,2469.844,2020-1-25T03:21:58Z
2020-01-25T01:24:28Z,42.805,6.029,13.2997,4.60036,2469.867,2020-1-25T03:25:01Z
2020-01-25T01:27:31Z,42.805,6.029,13.3014,4.60021,2469.806,2020-1-25T03:28:05Z
2020-01-25T01:30:35Z,42.805,6.029,13.3015,4.60016,2469.821,2020-1-25T03:31:08Z
2020-01-25T01:33:38Z,42.805,6.029,13.2996,4.60051,2469.853,2020-1-25T03:34:11Z
2020-01-25T01:36:41Z,42.805,6.029,13.3017,4.60040,2469.867,2020-1-25T03:37:14Z
2020-01-25T01:39:44Z,42.805,6.029,13.3031,4.60062,2469.844,2020-1-25T03:40:18Z
2020-01-25T01:42:48Z,42.805,6.029,13.3024,4.60056,2469.867,2020-1-25T03:43:21Z
2020-01-25T01:45:51Z,42.805,6.029,13.3021,4.60039,2469.867,2020-1-25T03:46:24Z
2020-01-25T01:48:54Z,42.805,6.029,13.2995,4.60046,2469.821,2020-1-25T03:49:27Z
2020-01-25T01:51:57Z,42.805,6.029,13.3019,4.60070,2469.83,2020-1-25T03:52:31Z
2020-01-25T01:55:01Z,42.805,6.029,13.3025,4.60044,2469.844,2020-1-25T03:55:34Z
2020-01-25T01:58:04Z,42.805,6.029,13.3030,4.60044,2469.853,2020-1-25T03:58:37Z
2020-01-25T02:01:07Z,42.805,6.029,13.3037,4.60019,2469.83,2020-1-25T04:01:41Z
2020-01-25T02:04:11Z,42.805,6.029,13.3031,4.60063,2469.853,2020-1-25T04:04:44Z
2020-01-25T02:07:14Z,42.805,6.029,13.3041,4.60057,2469.83,2020-1-25T04:07:47Z
2020-01-25T02:10:17Z,42.805,6.029,13.3009,4.60052,2469.821,2020-1-25T04:10:50Z
2020-01-25T02:13:20Z,42.805,6.029,13.3014,4.60044,2469.867,2020-1-25T04:13:53Z
2020-01-25T02:16:23Z,42.805,6.029,13.3014,4.60019,2469.876,2020-1-25T04:16:57Z
2020-01-25T02:19:26Z,42.805,6.029,13.3004,4.60035,2469.821,2020-1-25T04:20:00Z
2020-01-25T02:22:30Z,42.805,6.029,13.3011,4.60027,2469.853,2020-1-25T04:23:03Z
2020-01-25T02:25:33Z,42.805,6.029,13.3036,4.60074,2469.867,2020-1-25T04:26:06Z
2020-01-25T02:28:36Z,42.805,6.029,13.3008,4.60059,2469.806,2020-1-25T04:29:09Z
2020-01-25T02:31:39Z,42.805,6.029,13.3037,4.60067,2469.89,2020-1-25T04:32:12Z
2020-01-25T02:34:42Z,42.805,6.029,13.3004,4.60033,2469.83,2020-1-25T04:35:16Z
2020-01-25T02:37:46Z,42.805,6.029,13.3009,4.60034,2469.821,2020-1-25T04:38:19Z
2020-01-25T02:40:49Z,42.805,6.029,13.2999,4.60052,2469.867,2020-1-25T04:41:22Z
2020-01-25T02:43:52Z,42.805,6.029,13.3033,4.60041,2469.867,2020-1-25T04:44:25Z
2020-01-25T02:46:55Z,42.805,6.029,13.2986,4.60029,2469.867,2020-1-25T04:47:28Z
2020-01-25T02:49:58Z,42.805,6.029,13.3038,4.60045,2469.876,2020-1-25T04:50:32Z
2020-01-25T02:53:02Z,42.805,6.029,13.3026,4.60033,2469.867,2020-1-25T04:53:35Z
2020-01-25T02:56:05Z,42.805,6.029,13.3045,4.60053,2469.867,2020-1-25T04:56:38Z
2020-01-25T02:59:08Z,42.805,6.029,13.3034,4.60084,2469.853,2020-1-25T04:59:41Z
2020-01-25T03:02:11Z,42.805,6.029,13.3048,4.60035,2469.876,2020-1-25T05:02:44Z
2020-01-25T03:05:14Z,42.805,6.029,13.3042,4.60005,2469.844,2020-1-25T05:05:48Z
2020-01-25T03:08:18Z,42.805,6.029,13.3027,4.60025,2469.867,2020-1-25T05:08:51Z
2020-01-25T03:11:21Z,42.805,6.029,13.2994,4.60037,2469.853,2020-1-25T05:11:54Z
2020-01-25T03:14:24Z,42.805,6.029,13.2998,4.60072,2469.853,2020-1-25T05:14:57Z
2020-01-25T03:17:27Z,42.805,6.029,13.3009,4.60101,2469.853,2020-1-25T05:18:00Z
2020-01-25T03:20:30Z,42.805,6.029,13.3026,4.60047,2469.867,2020-1-25T05:21:03Z
2020-01-25T03:23:33Z,42.805,6.029,13.3009,4.60016,2469.89,2020-1-25T05:24:07Z
2020-01-25T03:26:37Z,42.805,6.029,13.3006,4.60060,2469.89,2020-1-25T05:27:10Z
2020-01-25T03:29:40Z,42.805,6.029,13.3020,4.60031,2469.876,2020-1-25T05:30:13Z
2020-01-25T03:32:43Z,42.805,6.029,13.3029,4.60049,2469.853,2020-1-25T05:33:16Z
2020-01-25T03:35:46Z,42.805,6.029,13.3012,4.60057,2469.876,2020-1-25T05:36:20Z
2020-01-25T03:38:50Z,42.805,6.029,13.3022,4.60063,2469.89,2020-1-25T05:39:23Z
2020-01-25T03:41:53Z,42.805,6.029,13.3020,4.60049,2469.914,2020-1-25T05:42:26Z
2020-01-25T03:44:56Z,42.805,6.029,13.2998,4.60059,2469.914,2020-1-25T05:45:29Z
2020-01-25T03:47:59Z,42.805,6.029,13.3023,4.60016,2469.914,2020-1-25T05:48:32Z
2020-01-25T03:51:02Z,42.805,6.029,13.3019,4.60037,2469.923,2020-1-25T05:51:35Z
2020-01-25T03:54:05Z,42.805,6.029,13.3006,4.60031,2469.876,2020-1-25T05:54:39Z
2020-01-25T03:57:09Z,42.805,6.029,13.2983,4.60028,2469.89,2020-1-25T05:57:42Z
2020-01-25T04:00:12Z,42.805,6.029,13.2996,4.60032,2469.937,2020-1-25T06:00:45Z
2020-01-25T04:03:15Z,42.805,6.029,13.3004,4.60044,2469.937,2020-1-25T06:03:48Z
2020-01-25T04:06:18Z,42.805,6.029,13.2996,4.60036,2469.909,2020-1-25T06:06:52Z
2020-01-25T04:09:22Z,42.805,6.029,13.2985,4.60034,2469.937,2020-1-25T06:09:55Z
2020-01-25T04:12:25Z,42.805,6.029,13.2984,4.60024,2469.923,2020-1-25T06:12:58Z
2020-01-25T04:15:28Z,42.805,6.029,13.2989,4.60039,2469.923,2020-1-25T06:16:01Z
2020-01-25T04:18:31Z,42.805,6.029,13.2992,4.60034,2469.923,2020-1-25T06:19:04Z
2020-01-25T04:21:34Z,42.805,6.029,13.2992,4.60043,2469.96,2020-1-25T06:22:08Z
2020-01-25T04:24:38Z,42.805,6.029,13.2993,4.60031,2469.937,2020-1-25T06:25:11Z
2020-01-25T04:27:41Z,42.805,6.029,13.3006,4.60021,2469.9,2020-1-25T06:28:14Z
2020-01-25T04:30:44Z,42.805,6.029,13.3002,4.60026,2469.937,2020-1-25T06:31:17Z
2020-01-25T04:33:47Z,42.805,6.029,13.3008,4.60021,2469.923,2020-1-25T06:34:20Z
2020-01-25T04:36:50Z,42.805,6.029,13.3014,4.60023,2469.923,2020-1-25T06:37:24Z
2020-01-25T04:39:53Z,42.805,6.029,13.3014,4.60023,2469.984,2020-1-25T06:40:27Z
2020-01-25T04:42:57Z,42.805,6.029,13.3010,4.60029,2469.947,2020-1-25T06:43:30Z
2020-01-25T04:46:00Z,42.805,6.029,13.3002,4.60036,2469.96,2020-1-25T06:46:33Z
2020-01-25T04:49:03Z,42.805,6.029,13.2983,4.60038,2469.984,2020-1-25T06:49:36Z
2020-01-25T04:52:06Z,42.805,6.029,13.2979,4.60039,2469.984,2020-1-25T06:52:40Z
2020-01-25T04:55:09Z,42.805,6.029,13.3000,4.60004,2469.947,2020-1-25T06:55:43Z
2020-01-25T04:58:13Z,42.805,6.029,13.3001,4.60001,2469.947,2020-1-25T06:58:46Z
2020-01-25T05:01:16Z,42.805,6.029,13.2987,4.60011,2469.96,2020-1-25T07:01:49Z
2020-01-25T05:04:19Z,42.805,6.029,13.2995,4.60019,2469.947,2020-1-25T07:04:52Z
2020-01-25T05:07:22Z,42.805,6.029,13.2974,4.60001,2470.017,2020-1-25T07:07:55Z
2020-01-25T05:10:25Z,42.805,6.029,13.2984,4.60002,2469.993,2020-1-25T07:10:59Z
2020-01-25T05:13:29Z,42.805,6.029,13.2974,4.60011,2469.993,2020-1-25T07:14:02Z
2020-01-25T05:16:32Z,42.805,6.029,13.2978,4.59997,2469.97,2020-1-25T07:17:05Z
2020-01-25T05:19:35Z,42.805,6.029,13.2977,4.59999,2469.984,2020-1-25T07:20:08Z
2020-01-25T05:22:38Z,42.805,6.029,13.2976,4.59999,2470.017,2020-1-25T07:23:11Z
2020-01-25T05:25:41Z,42.805,6.029,13.2982,4.60008,2470.007,2020-1-25T07:26:14Z
2020-01-25T05:28:44Z,42.805,6.029,13.2987,4.60003,2469.993,2020-1-25T07:29:18Z
2020-01-25T05:31:48Z,42.805,6.029,13.2989,4.60021,2469.993,2020-1-25T07:32:21Z
2020-01-25T05:34:51Z,42.805,6.029,13.2997,4.60043,2469.993,2020-1-25T07:35:24Z
2020-01-25T05:37:54Z,42.805,6.029,13.3019,4.60025,2470.03,2020-1-25T07:38:27Z
2020-01-25T05:40:57Z,42.805,6.029,13.3011,4.60016,2470.007,2020-1-25T07:41:30Z
2020-01-25T05:44:00Z,42.805,6.029,13.3007,4.60030,2470.017,2020-1-25T07:44:34Z
2020-01-25T05:47:04Z,42.805,6.029,13.3003,4.60047,2470.017,2020-1-25T07:47:37Z
2020-01-25T05:50:07Z,42.805,6.029,13.3002,4.60006,2470.017,2020-1-25T07:50:40Z
2020-01-25T05:53:10Z,42.805,6.029,13.2981,4.60003,2470.017,2020-1-25T07:53:43Z
2020-01-25T05:56:13Z,42.805,6.029,13.2981,4.60000,2470.04,2020-1-25T07:56:46Z
2020-01-25T05:59:16Z,42.805,6.029,13.2983,4.60023,2470.03,2020-1-25T07:59:50Z
2020-01-25T06:02:20Z,42.805,6.029,13.2986,4.60010,2470.03,2020-1-25T08:02:53Z
2020-01-25T06:05:23Z,42.805,6.029,13.2996,4.60016,2470.04,2020-1-25T08:05:56Z
2020-01-25T06:08:26Z,42.805,6.029,13.2991,4.60026,2470.053,2020-1-25T08:08:59Z
2020-01-25T06:11:29Z,42.805,6.029,13.2996,4.60031,2470.077,2020-1-25T08:12:03Z
2020-01-25T06:14:33Z,42.805,6.029,13.2986,4.60007,2470.1,2020-1-25T08:15:06Z
2020-01-25T06:17:36Z,42.805,6.029,13.2984,4.59992,2470.077,2020-1-25T08:18:09Z
2020-01-25T06:20:39Z,42.805,6.029,13.2987,4.60000,2470.063,2020-1-25T08:21:12Z
2020-01-25T06:23:42Z,42.805,6.029,13.2992,4.60012,2470.04,2020-1-25T08:24:15Z
2020-01-25T06:26:45Z,42.805,6.029,13.2993,4.60019,2470.063,2020-1-25T08:27:19Z
2020-01-25T06:29:48Z,42.805,6.029,13.3004,4.60037,2470.03,2020-1-25T08:30:22Z
2020-01-25T06:32:52Z,42.805,6.029,13.2982,4.60022,2470.063,2020-1-25T08:33:25Z
2020-01-25T06:35:55Z,42.805,6.029,13.2985,4.60017,2470.04,2020-1-25T08:36:28Z
2020-01-25T06:38:58Z,42.805,6.029,13.2993,4.60026,2470.1,2020-1-25T08:39:31Z
2020-01-25T06:42:01Z,42.805,6.029,13.2993,4.60023,2470.063,2020-1-25T08:42:34Z
2020-01-25T06:45:04Z,42.805,6.029,13.2993,4.60019,2470.04,2020-1-25T08:45:38Z
2020-01-25T06:48:08Z,42.805,6.029,13.2994,4.60026,2470.077,2020-1-25T08:48:41Z
2020-01-25T06:51:11Z,42.805,6.029,13.3000,4.60029,2470.087,2020-1-25T08:51:44Z
2020-01-25T06:54:14Z,42.805,6.029,13.3005,4.60029,2470.077,2020-1-25T08:54:47Z
2020-01-25T06:57:17Z,42.805,6.029,13.3004,4.60030,2470.04,2020-1-25T08:57:50Z
2020-01-25T07:00:20Z,42.805,6.029,13.3004,4.60024,2470.1,2020-1-25T09:00:54Z
2020-01-25T07:03:24Z,42.805,6.029,13.2988,4.60040,2470.087,2020-1-25T09:03:57Z
2020-01-25T07:06:27Z,42.805,6.029,13.2998,4.60036,2470.1,2020-1-25T09:07:00Z
2020-01-25T07:09:30Z,42.805,6.029,13.3008,4.60033,2470.053,2020-1-25T09:10:03Z
2020-01-25T07:12:33Z,42.805,6.029,13.3005,4.60032,2470.063,2020-1-25T09:13:06Z
2020-01-25T07:15:36Z,42.805,6.029,13.3000,4.60044,2470.053,2020-1-25T09:16:10Z
2020-01-25T07:18:40Z,42.805,6.029,13.3010,4.60029,2470.1,2020-1-25T09:19:13Z
2020-01-25T07:21:43Z,42.805,6.029,13.3009,4.60026,2470.11,2020-1-25T09:22:16Z
2020-01-25T07:24:46Z,42.805,6.029,13.3003,4.60045,2470.063,2020-1-25T09:25:19Z
2020-01-25T07:27:49Z,42.805,6.029,13.2990,4.60026,2470.077,2020-1-25T09:28:22Z
2020-01-25T07:30:52Z,42.805,6.029,13.2988,4.60003,2470.1,2020-1-25T09:31:26Z
2020-01-25T07:33:56Z,42.805,6.029,13.2993,4.60013,2470.1,2020-1-25T09:34:29Z
2020-01-25T07:36:59Z,42.805,6.029,13.2998,4.60026,2470.1,2020-1-25T09:37:32Z
2020-01-25T07:40:02Z,42.805,6.029,13.2993,4.60028,2470.077,2020-1-25T09:40:35Z
2020-01-25T07:43:05Z,42.805,6.029,13.2993,4.60016,2470.063,2020-1-25T09:43:38Z
2020-01-25T07:46:08Z,42.805,6.029,13.2996,4.59980,2470.1,2020-1-25T09:46:42Z
2020-01-25T07:49:12Z,42.805,6.029,13.2988,4.60001,2470.063,2020-1-25T09:49:45Z
2020-01-25T07:52:15Z,42.805,6.029,13.2982,4.59999,2470.11,2020-1-25T09:52:48Z
2020-01-25T07:55:18Z,42.805,6.029,13.2987,4.60014,2470.1,2020-1-25T09:55:51Z
2020-01-25T07:58:21Z,42.805,6.029,13.2997,4.60026,2470.063,2020-1-25T09:58:55Z
2020-01-25T08:01:25Z,42.805,6.029,13.2988,4.59996,2470.124,2020-1-25T10:01:58Z
2020-01-25T08:04:28Z,42.805,6.029,13.2996,4.60003,2470.087,2020-1-25T10:05:01Z
2020-01-25T08:07:31Z,42.805,6.029,13.2990,4.60013,2470.124,2020-1-25T10:08:04Z
2020-01-25T08:10:34Z,42.805,6.029,13.2989,4.60019,2470.063,2020-1-25T10:11:07Z
2020-01-25T08:13:37Z,42.805,6.029,13.2995,4.60014,2470.124,2020-1-25T10:14:11Z
2020-01-25T08:16:41Z,42.805,6.029,13.2985,4.59994,2470.133,2020-1-25T10:17:14Z
2020-01-25T08:19:44Z,42.805,6.029,13.2983,4.59983,2470.124,2020-1-25T10:20:17Z
2020-01-25T08:22:47Z,42.805,6.029,13.2979,4.60003,2470.087,2020-1-25T10:23:20Z
2020-01-25T08:25:50Z,42.805,6.029,13.2982,4.59994,2470.087,2020-1-25T10:26:23Z
2020-01-25T08:28:53Z,42.805,6.029,13.2996,4.60011,2470.087,2020-1-25T10:29:27Z
2020-01-25T08:31:57Z,42.805,6.029,13.2994,4.60006,2470.087,2020-1-25T10:32:30Z
2020-01-25T08:35:00Z,42.805,6.029,13.2981,4.59978,2470.124,2020-1-25T10:35:33Z
2020-01-25T08:38:03Z,42.805,6.029,13.2986,4.59988,2470.077,2020-1-25T10:38:36Z
2020-01-25T08:41:06Z,42.805,6.029,13.2986,4.59997,2470.124,2020-1-25T10:41:39Z
2020-01-25T08:44:09Z,42.805,6.029,13.2991,4.59996,2470.124,2020-1-25T10:44:43Z
2020-01-25T08:47:13Z,42.805,6.029,13.2977,4.59992,2470.063,2020-1-25T10:47:46Z
2020-01-25T08:50:16Z,42.805,6.029,13.2994,4.60008,2470.087,2020-1-25T10:50:49Z
2020-01-25T08:53:19Z,42.805,6.029,13.2985,4.60011,2470.124,2020-1-25T10:53:52Z
2020-01-25T08:56:22Z,42.805,6.029,13.2979,4.59999,2470.087,2020-1-25T10:56:56Z
2020-01-25T08:59:25Z,42.805,6.029,13.2986,4.60006,2470.1,2020-1-25T10:59:59Z
2020-01-25T09:02:29Z,42.805,6.029,13.2982,4.60013,2470.087,2020-1-25T11:03:02Z
2020-01-25T09:05:32Z,42.805,6.029,13.2982,4.60005,2470.04,2020-1-25T11:06:05Z
2020-01-25T09:08:35Z,42.805,6.029,13.2983,4.60002,2470.11,2020-1-25T11:09:08Z
2020-01-25T09:11:38Z,42.805,6.029,13.2982,4.59991,2470.053,2020-1-25T11:12:11Z
2020-01-25T09:14:41Z,42.805,6.029,13.2980,4.60005,2470.063,2020-1-25T11:15:15Z
2020-01-25T09:17:45Z,42.805,6.029,13.2997,4.60013,2470.087,2020-1-25T11:18:18Z
2020-01-25T09:20:48Z,42.805,6.029,13.2983,4.60021,2470.063,2020-1-25T11:21:21Z
2020-01-25T09:23:51Z,42.805,6.029,13.2982,4.59989,2470.11,2020-1-25T11:24:24Z
2020-01-25T09:26:54Z,42.805,6.029,13.2973,4.59991,2470.063,2020-1-25T11:27:27Z
2020-01-25T09:29:57Z,42.805,6.029,13.2991,4.59994,2470.1,2020-1-25T11:30:31Z
2020-01-25T09:33:01Z,42.805,6.029,13.2993,4.59996,2470.1,2020-1-25T11:33:34Z
2020-01-25T09:36:04Z,42.805,6.029,13.2983,4.59993,2470.077,2020-1-25T11:36:37Z
2020-01-25T09:39:07Z,42.805,6.029,13.2983,4.59996,2470.077,2020-1-25T11:39:40Z
2020-01-25T09:42:10Z,42.805,6.029,13.2986,4.59984,2470.04,2020-1-25T11:42:43Z
2020-01-25T09:45:13Z,42.805,6.029,13.2982,4.59985,2470.063,2020-1-25T11:45:47Z
2020-01-25T09:48:17Z,42.805,6.029,13.2976,4.59991,2470.1,2020-1-25T11:48:50Z
2020-01-25T09:51:20Z,42.805,6.029,13.2983,4.59987,2470.053,2020-1-25T11:51:53Z
2020-01-25T09:54:23Z,42.805,6.029,13.2977,4.59998,2470.077,2020-1-25T11:54:56Z
2020-01-25T09:57:26Z,42.805,6.029,13.2991,4.59999,2470.077,2020-1-25T11:57:59Z
2020-01-25T10:00:30Z,42.805,6.029,13.2976,4.60009,2470.017,2020-1-25T12:01:03Z
2020-01-25T10:03:33Z,42.805,6.029,13.2998,4.60003,2470.087,2020-1-25T12:04:06Z
2020-01-25T10:06:36Z,42.805,6.029,13.2993,4.60009,2470.03,2020-1-25T12:07:09Z
2020-01-25T10:09:39Z,42.805,6.029,13.2981,4.59990,2470.087,2020-1-25T12:10:13Z
2020-01-25T10:12:43Z,42.805,6.029,13.2982,4.59979,2470.1,2020-1-25T12:13:16Z
2020-01-25T10:15:46Z,42.805,6.029,13.2973,4.59982,2470.053,2020-1-25T12:16:19Z
2020-01-25T10:18:49Z,42.805,6.029,13.2987,4.59981,2470.077,2020-1-25T12:19:22Z
2020-01-25T10:21:52Z,42.805,6.029,13.2976,4.59992,2470.03,2020-1-25T12:22:25Z
2020-01-25T10:24:55Z,42.805,6.029,13.2979,4.59991,2470.04,2020-1-25T12:25:29Z
2020-01-25T10:27:59Z,42.805,6.029,13.2976,4.59982,2470.053,2020-1-25T12:28:32Z
2020-01-25T10:31:02Z,42.805,6.029,13.2983,4.59981,2470.04,2020-1-25T12:31:35Z
2020-01-25T10:34:05Z,42.805,6.029,13.2983,4.59991,2470.077,2020-1-25T12:34:38Z
2020-01-25T10:37:08Z,42.805,6.029,13.2988,4.59993,2470.053,2020-1-25T12:37:41Z
2020-01-25T10:40:11Z,42.805,6.029,13.2983,4.59988,2470.04,2020-1-25T12:40:45Z
2020-01-25T10:43:15Z,42.805,6.029,13.2982,4.59981,2470.017,2020-1-25T12:43:48Z
2020-01-25T10:46:18Z,42.805,6.029,13.2985,4.59978,2470.04,2020-1-25T12:46:51Z
2020-01-25T10:49:21Z,42.805,6.029,13.2973,4.59977,2470.017,2020-1-25T12:49:54Z
2020-01-25T10:52:24Z,42.805,6.029,13.2971,4.59989,2470.04,2020-1-25T12:52:57Z
2020-01-25T10:55:27Z,42.805,6.029,13.2973,4.59984,2470.053,2020-1-25T12:56:01Z
2020-01-25T10:58:30Z,42.805,6.029,13.2980,4.59994,2470.026,2020-1-25T12:59:04Z
2020-01-25T11:01:34Z,42.805,6.029,13.2974,4.59995,2470.007,2020-1-25T13:02:07Z
2020-01-25T11:04:37Z,42.805,6.029,13.2979,4.59973,2470.03,2020-1-25T13:05:10Z
2020-01-25T11:07:40Z,42.805,6.029,13.2976,4.59999,2469.993,2020-1-25T13:08:13Z
2020-01-25T11:10:43Z,42.805,6.029,13.2977,4.59981,2469.993,2020-1-25T13:11:16Z
2020-01-25T11:13:47Z,42.805,6.029,13.2978,4.59986,2470.04,2020-1-25T13:14:20Z
2020-01-25T11:16:50Z,42.805,6.029,13.2976,4.59984,2469.993,2020-1-25T13:17:23Z
2020-01-25T11:19:53Z,42.805,6.029,13.2975,4.59994,2470.04,2020-1-25T13:20:26Z
2020-01-25T11:22:56Z,42.805,6.029,13.2979,4.59980,2470.03,2020-1-25T13:23:29Z
2020-01-25T11:25:59Z,42.805,6.029,13.2969,4.59969,2469.96,2020-1-25T13:26:33Z
2020-01-25T11:29:03Z,42.805,6.029,13.2969,4.59973,2469.993,2020-1-25T13:29:36Z
2020-01-25T11:32:06Z,42.805,6.029,13.2974,4.59975,2469.984,2020-1-25T13:32:39Z
2020-01-25T11:35:09Z,42.805,6.029,13.2971,4.59970,2470.007,2020-1-25T13:35:42Z
2020-01-25T11:38:12Z,42.805,6.029,13.2979,4.59986,2469.993,2020-1-25T13:38:45Z
2020-01-25T11:41:15Z,42.805,6.029,13.2983,4.59989,2470.053,2020-1-25T13:41:49Z
2020-01-25T11:44:19Z,42.805,6.029,13.2983,4.59986,2470.017,2020-1-25T13:44:52Z
2020-01-25T11:47:22Z,42.805,6.029,13.2981,4.59982,2469.993,2020-1-25T13:47:55Z
2020-01-25T11:50:25Z,42.805,6.029,13.2982,4.59973,2469.97,2020-1-25T13:50:58Z
2020-01-25T11:53:28Z,42.805,6.029,13.2974,4.59976,2469.97,2020-1-25T13:54:01Z
2020-01-25T11:56:31Z,42.805,6.029,13.2969,4.59976,2470.017,2020-1-25T13:57:05Z
2020-01-25T11:59:35Z,42.805,6.029,13.2990,4.59983,2469.97,2020-1-25T14:00:08Z
2020-01-25T12:02:38Z,42.805,6.029,13.2975,4.60004,2469.984,2020-1-25T14:03:11Z
2020-01-25T12:05:41Z,42.805,6.029,13.2981,4.59978,2469.96,2020-1-25T14:06:14Z
2020-01-25T12:08:44Z,42.805,6.029,13.2978,4.59987,2469.937,2020-1-25T14:09:18Z
2020-01-25T12:11:47Z,42.805,6.029,13.2975,4.59985,2470.03,2020-1-25T14:12:21Z
2020-01-25T12:14:51Z,42.805,6.029,13.2968,4.59975,2469.97,2020-1-25T14:15:24Z
2020-01-25T12:17:54Z,42.805,6.029,13.2971,4.59973,2469.984,2020-1-25T14:18:27Z
2020-01-25T12:20:57Z,42.805,6.029,13.2980,4.59982,2469.97,2020-1-25T14:21:30Z
2020-01-25T12:24:00Z,42.805,6.029,13.2979,4.59990,2469.97,2020-1-25T14:24:34Z
2020-01-25T12:27:03Z,42.805,6.029,13.2971,4.59971,2469.984,2020-1-25T14:27:37Z
2020-01-25T12:30:07Z,42.805,6.029,13.2971,4.59979,2469.993,2020-1-25T14:30:40Z
2020-01-25T12:33:10Z,42.805,6.029,13.2993,4.59994,2469.96,2020-1-25T14:33:43Z
2020-01-25T12:36:13Z,42.805,6.029,13.2984,4.59973,2469.923,2020-1-25T14:36:46Z
2020-01-25T12:39:16Z,42.805,6.029,13.2968,4.59978,2469.984,2020-1-25T14:39:50Z
2020-01-25T12:42:20Z,42.805,6.029,13.2977,4.59978,2469.923,2020-1-25T14:42:53Z
2020-01-25T12:45:23Z,42.805,6.029,13.2978,4.59982,2469.96,2020-1-25T14:45:56Z
2020-01-25T12:48:26Z,42.805,6.029,13.2978,4.59984,2469.97,2020-1-25T14:48:59Z
2020-01-25T12:51:29Z,42.805,6.029,13.2970,4.59981,2469.9,2020-1-25T14:52:02Z
2020-01-25T12:54:32Z,42.805,6.029,13.2981,4.59968,2469.923,2020-1-25T14:55:06Z
2020-01-25T12:57:36Z,42.805,6.029,13.2974,4.59968,2469.937,2020-1-25T14:58:09Z
2020-01-25T13:00:39Z,42.805,6.029,13.2979,4.59973,2469.937,2020-1-25T15:01:12Z
2020-01-25T13:03:42Z,42.805,6.029,13.2976,4.59976,2469.923,2020-1-25T15:04:15Z
2020-01-25T13:06:45Z,42.805,6.029,13.2983,4.59979,2469.937,2020-1-25T15:07:19Z
2020-01-25T13:09:48Z,42.805,6.029,13.2992,4.59984,2469.914,2020-1-25T15:10:22Z
2020-01-25T13:12:52Z,42.805,6.029,13.2975,4.59978,2469.937,2020-1-25T15:13:25Z
2020-01-25T13:15:55Z,42.805,6.029,13.2977,4.59969,2469.937,2020-1-25T15:16:28Z
2020-01-25T13:18:58Z,42.805,6.029,13.2978,4.59969,2469.914,2020-1-25T15:19:31Z
2020-01-25T13:22:01Z,42.805,6.029,13.2975,4.59977,2469.9,2020-1-25T15:22:34Z
2020-01-25T13:25:04Z,42.805,6.029,13.2974,4.59978,2469.937,2020-1-25T15:25:38Z
2020-01-25T13:28:08Z,42.805,6.029,13.2967,4.59990,2469.923,2020-1-25T15:28:41Z
2020-01-25T13:31:11Z,42.805,6.029,13.2977,4.59969,2469.89,2020-1-25T15:31:44Z
2020-01-25T13:34:14Z,42.805,6.029,13.2971,4.59983,2469.914,2020-1-25T15:34:47Z
2020-01-25T13:37:17Z,42.805,6.029,13.2971,4.59978,2469.914,2020-1-25T15:37:50Z
2020-01-25T13:40:20Z,42.805,6.029,13.2976,4.59971,2469.886,2020-1-25T15:40:53Z
2020-01-25T13:43:23Z,42.805,6.029,13.2984,4.59968,2469.876,2020-1-25T15:43:57Z
2020-01-25T13:46:27Z,42.805,6.029,13.2993,4.59968,2469.914,2020-1-25T15:47:00Z
2020-01-25T13:49:30Z,42.805,6.029,13.2981,4.59974,2469.9,2020-1-25T15:50:03Z
2020-01-25T13:52:33Z,42.805,6.029,13.2974,4.59971,2469.9,2020-1-25T15:53:06Z
2020-01-25T13:55:36Z,42.805,6.029,13.2970,4.59976,2469.937,2020-1-25T15:56:10Z
2020-01-25T13:58:40Z,42.805,6.029,13.2970,4.59967,2469.876,2020-1-25T15:59:13Z
2020-01-25T14:01:43Z,42.805,6.029,13.2974,4.59973,2469.89,2020-1-25T16:02:16Z
2020-01-25T14:04:46Z,42.805,6.029,13.2975,4.59971,2469.89,2020-1-25T16:05:19Z
2020-01-25T14:07:49Z,42.805,6.029,13.2973,4.59975,2469.89,2020-1-25T16:08:23Z
2020-01-25T14:10:52Z,42.805,6.029,13.2972,4.59978,2469.937,2020-1-25T16:11:26Z
2020-01-25T14:13:56Z,42.805,6.029,13.2972,4.59983,2469.914,2020-1-25T16:14:29Z
2020-01-25T14:16:59Z,42.805,6.029,13.2977,4.59968,2469.914,2020-1-25T16:17:32Z
2020-01-25T14:20:02Z,42.805,6.029,13.2971,4.59983,2469.876,2020-1-25T16:20:35Z
2020-01-25T14:23:05Z,42.805,6.029,13.2976,4.59982,2469.876,2020-1-25T16:23:39Z
2020-01-25T14:26:08Z,42.805,6.029,13.2989,4.59978,2469.876,2020-1-25T16:26:42Z
2020-01-25T14:29:12Z,42.805,6.029,13.2986,4.59988,2469.9,2020-1-25T16:29:45Z
2020-01-25T14:32:15Z,42.805,6.029,13.2981,4.59981,2469.9,2020-1-25T16:32:48Z
2020-01-25T14:35:18Z,42.805,6.029,13.2976,4.59968,2469.89,2020-1-25T16:35:51Z
2020-01-25T14:38:21Z,42.805,6.029,13.2969,4.59978,2469.853,2020-1-25T16:38:54Z
2020-01-25T14:41:24Z,42.805,6.029,13.2969,4.59971,2469.876,2020-1-25T16:41:58Z
2020-01-25T14:44:28Z,42.805,6.029,13.2978,4.59976,2469.876,2020-1-25T16:45:01Z
2020-01-25T14:47:31Z,42.805,6.029,13.2973,4.59982,2469.853,2020-1-25T16:48:04Z
2020-01-25T14:50:34Z,42.805,6.029,13.2975,4.59981,2469.853,2020-1-25T16:51:07Z
2020-01-25T14:53:37Z,42.805,6.029,13.2970,4.59985,2469.876,2020-1-25T16:54:10Z
2020-01-25T14:56:40Z,42.805,6.029,13.2977,4.59980,2469.89,2020-1-25T16:57:14Z
2020-01-25T14:59:44Z,42.805,6.029,13.2976,4.59979,2469.853,2020-1-25T17:00:17Z
2020-01-25T15:02:47Z,42.805,6.029,13.2971,4.59974,2469.9,2020-1-25T17:03:20Z
2020-01-25T15:05:50Z,42.805,6.029,13.2992,4.59979,2469.876,2020-1-25T17:06:23Z
2020-01-25T15:08:53Z,42.805,6.029,13.2976,4.59972,2469.914,2020-1-25T17:09:26Z
2020-01-25T15:11:56Z,42.805,6.029,13.2980,4.59976,2469.853,2020-1-25T17:12:30Z
2020-01-25T15:15:00Z,42.805,6.029,13.2974,4.59981,2469.9,2020-1-25T17:15:33Z